Regional Weather Roundup
Issued by NWS San Diego, CA

Home | Current Version | Previous Version | Text Only | Print | Product List | Glossary On
Versions: 1 2 3 4 5 6 7 8 9 10 11 12 13 14 15 16 17 18 19 20 21 22 23 24 25 26 27 28 29 30 31 32 33 34 35 36 37 38 39 40 41 42 43 44 45 46 47 48 49 50
000
ASUS46 KSGX 241911
RWRSGX

SAN DIEGO HOURLY WEATHER ROUNDUP
NATIONAL WEATHER SERVICE SAN DIEGO CA
1100 AM PST FRI NOV 24 2017

NOTE: "FAIR" INDICATES FEW OR NO CLOUDS BELOW 12,000 FEET WITH NO
SIGNIFICANT WEATHER AND/OR OBSTRUCTIONS TO VISIBILITY.

CAZ042-043-060-061-PZZ750-775-242000-

GREATER SAN DIEGO AREA

CITY           SKY/WX    TMP DP  RH WIND       PRES   REMARKS
SAN DIEGO AP   MOSUNNY   77  43  29 SW3       29.94F
NATIONAL CITY    N/A     76  49  38 SW1       29.95S
CHULA VISTA      N/A     81  51  34 W3        29.85S
IMPERIAL BEACH MOSUNNY   75  48  38 SW7       29.94S
BROWN FIELD    SUNNY     83  44  25 W6        29.94F
MIRAMAR MCAS   MOSUNNY   91  40  16 VRB5      29.93F
MONTGOMERY FLD SUNNY     88  38  17 SW5       29.94F
GILLESPIE FLD  SUNNY     82  39  21 CALM      29.94F

$$

NORTH SAN DIEGO COUNTY

CITY           SKY/WX    TMP DP  RH WIND       PRES   REMARKS
CAMP PENDLETON   N/A     84  41  21 CALM      29.91F
OCEANSIDE AP   SUNNY     83  42  23 SW7       29.91F
OCEANSIDE HBR    N/A     72  47  40 NW2       29.94F
VISTA            N/A     82  45  27 CALM      29.90F
CARLSBAD       SUNNY     82  41  23 S3        29.92F
DEL MAR          N/A     78  47  33 CALM      29.94F
LA JOLLA SCRIP   N/A     77  46  32 SW1       29.92F
FALLBROOK        N/A     83  41  21 CALM      29.95S
ESCONDIDO        N/A     83  48  29 CALM      29.93F
SAN MARCOS       N/A     83  44  25 CALM      29.94F
POWAY            N/A     86  44  22 CALM      29.94F

$$

EAST SAN DIEGO COUNTY

CITY           SKY/WX    TMP DP  RH WIND       PRES   REMARKS
RAMONA         SUNNY     86  39  19 VRB3      29.97F
SANTEE LAKES     N/A     81  46  29 CALM      29.92F
LA MESA          N/A     83  43  24 CALM      29.86S
JAMUL            N/A     85  46  25 CALM      29.93S
DESCANSO N       N/A     79  39  24 W1        29.89F
MT. LAGUNA OBS   N/A     70  28  21 W3        29.84F
CAMPO            N/A     84  35  17 SW12      29.98F

$$

ORANGE COUNTY AND THE LOS ANGELES BASIN

CITY           SKY/WX    TMP DP  RH WIND       PRES   REMARKS
JOHN WAYNE AP  PTSUNNY   80  45  28 SW5       29.92F
LAGUNA BEACH     N/A     75  49  39 CALM      29.88S
LAKE FOREST FR   N/A     82  40  22 CALM      29.80F
HUNTINGTON BCH   N/A     76  55  47 SW3       29.94S
LOS ALAMITOS   PTSUNNY   79  44  28 CALM      29.92F
FULLERTON      SUNNY     81  41  24 S5        29.91F
LONG BEACH     SUNNY     79  46  31 S3        29.92F
L.A. AP        PTSUNNY   81  43  26 SE7       29.92F
L.A. DOWNTOWN  MOSUNNY   82  40  22 E5        29.91F

$$

THE INLAND EMPIRE

CITY           SKY/WX    TMP DP  RH WIND       PRES   REMARKS
CORONA         SUNNY     77  46  33 CALM      29.95F
CHINO          MOSUNNY   80  44  27 N3        29.96F
ONTARIO        PTSUNNY   79  34  19 CALM      29.95F
SAN BERNARDINO MOSUNNY   84  32  15 CALM      29.96F
RIVERSIDE AP   MOSUNNY   79  41  25 W5        29.95F
MORENO VALLEY    N/A     83  45  26 CALM      28.09F
MARCH ARB      SUNNY     80  37  20 SE6       29.97F
HORSETHIEF CYN   N/A     80  34  19 CALM      29.93F
PERRIS           N/A     80  43  27 S3          N/A
HEMET EAST       N/A     80  35  19 CALM      29.97F
FRENCH VALLEY  FAIR      79  37  22 CALM      29.97F
TEMECULA         N/A     74  47  37 E2        30.01F

$$

SAN BERNARDINO AND RIVERSIDE COUNTY MOUNTAINS

CITY           SKY/WX    TMP DP  RH WIND       PRES   REMARKS
BIG BEAR AP    SUNNY     68   5   8 SW3       30.25S
ANGELUS OAKS     N/A     70  33  25 CALM      29.90F

$$

SOUTHERN DESERT INCLUDING THE COACHELLA VALLEY

CITY           SKY/WX    TMP DP  RH WIND       PRES   REMARKS
PALM SPRINGS   SUNNY     85  38  18 VRB5      29.91F
THOUSAND PALMS   N/A     83  41  22 N2        29.87F
PALM DESERT      N/A     84  45  25 CALM        N/A
THERMAL        SUNNY     82  43  25 VRB3      29.87F
BLYTHE         SUNNY     75  37  25 S5        29.93F
IMPERIAL AP    SUNNY     80  37  21 CALM      29.89F
EL CENTRO NAS  MOSUNNY   83  36  18 CALM      29.91F
YUMA AZ        SUNNY     82  38  20 E7        29.90F
MEXICALI       SUNNY     82  39  21 S2        29.90F

$$

UPPER DESERT

CITY           SKY/WX    TMP DP  RH WIND       PRES   REMARKS
VICTORVILLE AP MOSUNNY   79  28  15 W14       30.04F
HESPERIA         N/A     83  32  16 CALM      30.08F
PALMDALE       SUNNY     80  33  18 VRB7      30.03F
LANCASTER      SUNNY     83  30  14 W12       30.01F
EDWARDS AFB    SUNNY     79  32  18 S9        29.99F
DAGGETT        SUNNY     76  37  24 W5        29.99F
29 PALMS N     SUNNY     80  30  16 VRB5      30.04F
NEEDLES        SUNNY     76  34  21 CALM      29.96F

$$

REGIONAL REPORTS

CITY           SKY/WX    TMP DP  RH WIND       PRES   REMARKS
SANTA BARBARA  MOSUNNY   68  60  75 SE7       29.92F
SANDBERG       SUNNY     72  24  16 N18G24    30.16F
LAS VEGAS NV   PTSUNNY   70  36  28 E3        30.00F
PHOENIX AZ     MOSUNNY   77  33  20 S5        29.94F
TIJUANA        MOSUNNY   84  34  16 CALM      29.96
ENSENADA NW      N/A     76  32  20 CALM      29.85F

$$

OFFSHORE ISLANDS

CITY           SKY/WX    TMP DP  RH WIND       PRES   REMARKS
CATALINA ARPT  MOSUNNY   86  38  18 NE3       29.99F
SAN CLEMENTE I PTSUNNY   76  61  59 SE9       29.93F
SAN NICOLAS IS SUNNY     71  55  56 NW9       29.93F

$$

MARINE AND OFFSHORE BUOY REPORTS

STATION/POSITION SKY/WX   TEMP    WIND        PRES    VSBY  SWELL
                          AIR SEA DIR/SP/G                  HT/PER/DIR
                          (F)     (DEG/KT/KT) (MB)    (MI)  (FT/S/D)
TANNER BANKS               64 63              1012.9F
S CLEMENTE BASIN           66 66     CALM     1013.3F         5/260/12
SAN NICOLAS IS.               63                N/A           5/300/14
SO. S. ROSA ISLA           63 61  330/ 10/ 10 1013.4F         7/290/14
W. S. BARBARA CH           62 59  320/ 19/ 23 1013.1
M. S. BARBARA CH           63 62  100/  4/  6 1014.1
S. MONICA BASIN               65   80/  4/  6 1012.9
S PEDRO CHANNEL               65                N/A           2/260/11
CMP PENDLETON NS              62                N/A           2/230/15
OCEANSIDE OFFSHR              65                N/A           2/260/11
TORREY PINES OTR              65                N/A           2/270/12
SAN DIEGO BAY                 66              1014.0F
POINT LOMA SOUTH              63                N/A           3/270/15

$$





USA.gov is the U.S. government's official web portal to all federal, state and local government web resources and services.